This site uses a module created by best online poker sites.

BSB police log ending July 22, 2014

"07/21/2014","01:01","214CR0017290","ALARM - BURGLARY","CRIMINAL MISCHIEF","28 DEWEY BLVD","",""
"07/21/2014","03:39","214CR0017291","ASSAULT","ASSAULT","************","",""
"07/21/2014","04:46","214CR0017292","T/S","DRIVING W/OUT VALID D/L","2053 HARRISON AVE","",""
"07/21/2014","06:01","214CR0017293","LED BUSINESS","LED BUSINESS","24 E COPPER ST","",""
"07/21/2014","06:36","214CR0017294","MEDICAL - EMERGENCY","MEDICAL - EMERGENCY","1950 YALE","",""
"07/21/2014","06:51","214CR0017295","VANDALISM/CRIMINAL MISCHIEF","CRIMINAL MISCHIEF","3500 WHITEWAY BLVD","",""
"07/21/2014","08:06","214CR0017296","T/S","T/S","PARK ST AND MONTANA ST","",""
"07/21/2014","08:20","214CR0017297","CIVIL PAPER SERVICE","CIVIL PAPER SERVICE","1118 FARRELL","",""
"07/21/2014","08:30","214CR0017298","T/S","T/S","3900 BLK HARRISON AVE","",""
"07/21/2014","08:36","214CR0017299","CIVIL PAPER SERVICE","CIVIL PAPER SERVICE","3201 KEOKUK","",""
"07/21/2014","08:54","214CR0017300","ACCIDENT","RED (STOP) LIGHT VIOLATION","MERCURY AND MAIN","",""
"07/21/2014","08:58","214CR0017301","CIVIL PAPER SERVICE","CIVIL PAPER SERVICE","2660 COLUSSA ST","",""
"07/21/2014","09:03","214CR0017302","CIVIL PAPER SERVICE","CIVIL PAPER SERVICE","910 EVANS APT D3","",""
"07/21/2014","09:05","214CR0017303","THEFT","THEFT, ALL OTHERS","111 AIRPORT RD","",""
"07/21/2014","09:12","214CR0017304","PARKING COMPLAINT","PARKING COMPLAINT","519 W GALENA","",""
"07/21/2014","09:19","214CR0017305","HIT AND RUN","HIT AND RUN","3901 HARRISON AVE","",""
"07/21/2014","09:24","214CR0017306","CIVIL PAPER SERVICE","CIVIL PAPER SERVICE","55 BASIN CREEK RD","",""
"07/21/2014","09:31","214CR0017307","CIVIL PAPER SERVICE","CIVIL PAPER SERVICE","624 E FRONT ST","",""
"07/21/2014","09:32","214CR0017308","CIVIL PAPER SERVICE","CIVIL PAPER SERVICE","25 E GRANITE APT 111","",""
"07/21/2014","09:45","214CR0017309","CIVIL STANDBY","CIVIL STANDBY","1800 FLORENCE AVE","",""
"07/21/2014","10:05","214CR0017310","THEFT","THEFT OF VEHICLE PARTS/ACCESSO","2401 SHERMAN","",""
"07/21/2014","10:09","214CR0017311","CIVIL PAPER SERVICE","CIVIL PAPER SERVICE","1129 ATLANTIC","",""
"07/21/2014","10:14","214CR0017312","PARKING COMPLAINT","PARKING COMPLAINT","BROADWAY AND PARK","",""
"07/21/2014","10:17","214CR0017313","CIVIL PAPER SERVICE","CIVIL PAPER SERVICE","936 NEVADA AVE","",""
"07/21/2014","10:41","214CR0017314","SUSPICIOUS ACTIVITY","SUSPICIOUS ACTIVITY","216 N EMMETT","",""
"07/21/2014","10:47","214CR0017315","HARASSMENT","HARASSMENT","722 S COLORADO","",""
"07/21/2014","10:51","214CR0017316","MEDICAL - EMERGENCY","MEDICAL - EMERGENCY","1205 S MONTANA RM9","",""
"07/21/2014","11:09","214CR0017317","DETENTION BUSINESS","DETENTION BUSINESS","************","",""
"07/21/2014","11:19","214CR0017318","UNKNOWN PROBLEM","UNKNOWN PROBLEM","155 W GRANITE ST","",""
"07/21/2014","11:27","214CR0017319","HARASSMENT","HARASSMENT","2532 EDWARDS","",""
"07/21/2014","11:58","214CR0017320","T/S","T/S","2000 BLK HARRISON AVE","",""
"07/21/2014","12:01","214CR0017321","SUSPICIOUS ACTIVITY","SUSPICIOUS ACTIVITY","PARK AND MAIN","",""
"07/21/2014","12:25","214CR0017322","T/S","T/S","600 BLK S MAIN ST","",""
"07/21/2014","12:43","214CR0017323","T/S","T/S","3000 BLK AMHERST AVE","",""
"07/21/2014","12:44","214CR0017324","T/S","T/S","3000 BLK OF AMHERST","",""
"07/21/2014","12:51","214CR0017325","T/S","T/S","HARRISON AVE AND MAJORS ST","",""
"07/21/2014","12:55","214CR0017326","CIVIL PAPER SERVICE","CIVIL PAPER SERVICE","155 W QUARTZ","",""
"07/21/2014","13:09","214CR0017327","THEFT","THEFT, SHOPLIFT","901 E FRONT ST","ARREST(s) MADE",""
"07/21/2014","13:17","214CR0017328","ABANDONED VEHICLE","ABANDONED VEHICLE","1001 EMPIRE","",""
"07/21/2014","13:42","214CR0017329","CITIZEN AID","CITIZEN AID","GRANITE ST AND MAIN ST","",""
"07/21/2014","13:44","214CR0017330","CIVIL PAPER SERVICE","CIVIL PAPER SERVICE","624 E FRONT ST","",""
"07/21/2014","13:46","214CR0017331","T/S","T/S","GRANITE ST AND MONTANA ST","",""
"07/21/2014","14:09","214CR0017332","WELFARE CHECK","WELFARE CHECK","226 W SILVER APT #7","",""
"07/21/2014","14:15","214CR0017333","HARASSMENT","HARASSMENT","501 W GRANITE #504","",""
"07/21/2014","14:25","214CR0017335","VANDALISM/CRIMINAL MISCHIEF","VANDALISM/CRIMINAL MISCHIEF","3139 SANDERS ST","",""
"07/21/2014","14:27","214CR0017334","DISTURBANCE","DISTURBANCE","HARRISON AVE // NOYES ST","",""
"07/21/2014","14:38","214CR0017336","THEFT","THEFT","1 HOLIDAY WY","",""
"07/21/2014","14:43","214CR0017337","T/S","T/S","HARRISON AVE // MAJORS ST","",""
"07/21/2014","14:55","214CR0017338","HARASSMENT","HARASSMENT","224 S JACKSON","",""
"07/21/2014","15:05","214CR0017339","THEFT","THEFT","1600 HARRISON AVE","",""
"07/21/2014","15:05","214CR0017340","T/S","T/S","GEORGE ST // MONTANA ST","",""
"07/21/2014","15:09","214CR0017341","VEHICLE INSPECTION","VEHICLE INSPECTION","225 ALASKA ST","",""
"07/21/2014","15:11","214CR0017342","ABANDONED VEHICLE","ABANDONED VEHICLE","2200 OTTAWA ST","",""
"07/21/2014","15:14","214CR0017343","T/S","T/S","310 W FRONT ST","",""
"07/21/2014","15:17","214CR0017344","THEFT","THEFT","738 N MONTANA","",""
"07/21/2014","15:55","214CR0017345","T/S","T/S","CONTINENTAL AND WHARTON","",""
"07/21/2014","16:08","214CR0017346","T/S","T/S","GRAND AVE AND WILSON ST","",""
"07/21/2014","16:23","214CR0017347","T/S","T/S @ MONTANA ST // PORPHYRY ST","MONTANA ST // PORPHYRY ST","",""
"07/21/2014","16:29","214CR0017348","T/S","T/S @ CASEY ST AND IOWA ST","CASEY ST AND IOWA ST","",""
"07/21/2014","16:30","214CR0017349","T/S","T/S","600 BLK IDAHO","",""
"07/21/2014","16:38","214CR0017350","DISTURBANCE","DISTURBANCE","119 W IRON ST","",""
"07/21/2014","16:43","214CR0017351","CITIZEN AID","CITIZEN AID","1107 MARYLAND AVE","",""
"07/21/2014","16:50","214CR0017352","LED BUSINESS","LED BUSINESS","UPTOWN BUTTE AREA","",""
"07/21/2014","17:08","214CR0017353","ACCIDENT- INJURY(MHP)","ACCIDENT- INJURY(MHP)","I15N MM 124","",""
"07/21/2014","17:13","214CR0017354","HARASSMENT","HARASSMENT","400 S CLARK ST","",""
"07/21/2014","17:15","214CR0017355","DISTURBANCE","DISTURBANCE","103 SILVER BOW HOMES","",""
"07/21/2014","17:20","214CR0017356","CIVIL STANDBY","CIVIL STANDBY","225 N ALASKA ST","",""
"07/21/2014","17:44","214CR0017357","CIVIL PAPER SERVICE","CIVIL PAPER SERVICE","153 TRINITY LOOP","",""
"07/21/2014","17:55","214CR0017358","THEFT","THEFT","225 N ALASKA ST","",""
"07/21/2014","18:01","214CR0017359","ALARM - BURGLARY","ALARM - BURGLARY","************","",""
"07/21/2014","18:26","214CR0017360","T/S","T/S @ I90 MM 127 WB","I90 MM 127 WB","",""
"07/21/2014","19:00","214CR0017361","MEDICAL - EMERGENCY","MEDICAL - EMERGENCY","155 W QUARTZ","",""
"07/21/2014","19:06","214CR0017362","ACCIDENT- INJURY(MHP)","ACCIDENT- INJURY(MHP)","FISHCREEK // HWY 2","",""
"07/21/2014","20:19","214CR0017363","WANTED PERSON","WANTED PERSON","************","",""
"07/21/2014","20:25","214CR0017364","ALARM - BURGLARY","ALARM - BURGLARY","************","",""
"07/21/2014","20:45","214CR0017365","DISTURBANCE","DISTURBANCE","320 GALAXY DR","",""
"07/21/2014","20:50","214CR0017366","SUSPICIOUS ACTIVITY","SUSPICIOUS ACTIVITY","1000 GRIZZLY TR","",""
"07/21/2014","20:53","214CR0017367","DISTURBANCE","DISTURBANCE","1208 N MAIN ST","",""
"07/21/2014","21:10","214CR0017368","SUICIDE ATTEMPT/THREAT","SUICIDE ATTEMPT/THREAT","************","",""
"07/21/2014","21:21","214CR0017369","MEDICAL - EMERGENCY","MEDICAL - EMERGENCY","920 S MONTANA ST #4","",""
"07/21/2014","21:34","214CR0017370","OPEN BUILDING","OPEN BUILDING","2721 GOODWIN ST","",""
"07/21/2014","21:37","214CR0017371","UNWANTED PERSON","UNWANTED PERSON","************","",""
"07/21/2014","21:48","214CR0017372","MEDICAL - EMERGENCY","MEDICAL - EMERGENCY","1331 FARRELL ST","",""
"07/21/2014","22:10","214CR0017373","HARASSMENT","HARASSMENT","3740 S ARIZONA","",""
"07/21/2014","22:43","214CR0017374","DISTURBANCE","DISTURBANCE","600 ROW OF SILVER BOW HOMES","",""
"07/21/2014","22:56","214CR0017375","UNKNOWN PROBLEM","UNKNOWN PROBLEM","3900 BLK PAXSON ST","",""
"07/21/2014","23:06","214CR0017376","HARASSMENT","HARASSMENT","3740 S ARIZONA ST","",""
"07/21/2014","23:10","214CR0017377","SUSPICIOUS ACTIVITY","SUSPICIOUS ACTIVITY","910 EVANS #G3","",""
"07/21/2014","23:11","214CR0017378","DISTURBANCE","DISTURBANCE","604 SILVER BOW HOMES","",""
"07/22/2014","00:06","214CR0017379","DISTURBANCE","DISTURBANCE","647 W GRANITE","",""
"07/22/2014","00:56","214CR0017380","ALARM - BURGLARY","ALARM - BURGLARY","************","",""
"07/22/2014","01:10","214CR0017381","UNKNOWN PROBLEM","UNKNOWN PROBLEM","3900 BLK PAXSON AVE","",""
"07/22/2014","01:21","214CR0017382","SUSPICIOUS ACTIVITY","SUSPICIOUS ACTIVITY","933 S MAIN","",""
"07/22/2014","01:51","214CR0017383","MEDICAL - EMERGENCY","MEDICAL - EMERGENCY","","",""
"07/22/2014","01:52","214CR0017384","MEDICAL - EMERGENCY","MEDICAL - EMERGENCY","501 W GRANITE ST","",""
"07/22/2014","01:56","214CR0017385","ALARM - BURGLARY","ALARM - BURGLARY","************","",""
"07/22/2014","02:17","214CR0017386","SUSPICIOUS ACTIVITY","SUSPICIOUS ACTIVITY","CORNELL DAYS INN","",""
"07/22/2014","04:12","214CR0017387","T/S","T/S @ LEXINGTON AND EVANS","LEXINGTON AND EVANS","",""
"07/22/2014","04:47","214CR0017388","MEDICAL - EMERGENCY","MEDICAL - EMERGENCY","1204 E 2ND BUTTE RESCUE MISSIO","",""
"07/22/2014","05:24","214CR0017389","SUSPICIOUS ACTIVITY","SUSPICIOUS ACTIVITY","2513 PINE ST","",""
"07/22/2014","06:27","214CR0017390","SUSPICIOUS ACTIVITY","SUSPICIOUS ACTIVITY","BEEF TRAIL","",""
"07/22/2014","07:24","214CR0017391","T/S","T/S @ HARRISON AND DUNDEE","HARRISON AND DUNDEE","",""
"07/22/2014","07:38","214CR0017392","THEFT","THEFT","OREGON AVE AND TAFT ST","",""

BSB Police report ending 7-21-14

"07/18/2014","00:10","214CR0017004","T/S","CRIMINAL CONTEMPT","AMHERST AND THOMAS","ARREST(s) MADE",""
"07/18/2014","00:18","214CR0017005","DISTURBANCE","DISTURBANCE","406 SILVERBOW HOMES","",""
"07/18/2014","00:29","214CR0017006","BUSINESS CHECK","BUSINESS CHECK","1370 HARRISON AVE","",""
"07/18/2014","01:11","214CR0017007","T/S","T/S","4100 BLK WESTERN BLVD","",""
"07/18/2014","01:22","214CR0017008","PROWLER","PROWLER","822 W GALENA","",""
"07/18/2014","01:23","214CR0017009","SUSPICIOUS ACTIVITY","SUSPICIOUS ACTIVITY","55 BASIN CREEK RD","",""
"07/18/2014","01:46","214CR0017010","DISTURBANCE","DISTURBANCE","643 S MAIN","",""
"07/18/2014","02:06","214CR0017011","T/S","T/S","MONTANA AND MERCURY","",""
"07/18/2014","02:22","214CR0017013","ALL OTHER","ALL OTHER","","",""
"07/18/2014","02:22","214CR0017012","SUSPICIOUS ACTIVITY","SUSPICIOUS ACTIVITY","9 N MAIN","",""
"07/18/2014","02:43","214CR0017014","ASSIST OTHER AGENCY","ASSIST OTHER AGENCY","I15 MM 125 NB","",""
"07/18/2014","02:47","214CR0017015","WELFARE CHECK","WELFARE CHECK","1312 SILVERBOW HOMES","",""
"07/18/2014","03:39","214CR0017016","MISSING PERSON","MISSING PERSON","************","",""
"07/18/2014","03:40","214CR0017017","THEFT","THEFT","1000 GRIZZLY TRAIL TOWN PUMP","",""
"07/18/2014","03:42","214CR0017018","THEFT","THEFT, SHOPLIFT","2544 HARRISON LISACS TRI STOP","",""
"07/18/2014","03:53","214CR0017019","THEFT","MOTOR VEHICLE THEFT","2711 HARRISON AVE","ARREST(s) MADE",""
"07/18/2014","04:26","214CR0017020","JUVENILE MISC","JUVENILE MISC","************","",""
"07/18/2014","04:44","214CR0017021","SUSPICIOUS ACTIVITY","SUSPICIOUS ACTIVITY","3099 HARRISON / KFC","",""
"07/18/2014","05:24","214CR0017022","SUSPICIOUS ACTIVITY","SUSPICIOUS ACTIVITY","PAXSON AND ELIZABETH WARREN","",""
"07/18/2014","06:17","214CR0017023","VANDALISM/CRIMINAL MISCHIEF","CRIMINAL MISCHIEF","1839 ELM ST","",""
"07/18/2014","06:32","214CR0017024","ACCIDENT - INJURY","ACCIDENT - INJURY","PAXSON AND ROOSEVELT","",""
"07/18/2014","07:04","214CR0017025","LED BUSINESS","LED BUSINESS","155 W QUARTZ","",""
"07/18/2014","07:07","214CR0017026","UNWANTED PERSON","UNWANTED PERSON","************","",""
"07/18/2014","08:48","214CR0017027","UNWANTED PERSON","UNWANTED PERSON","************","",""
"07/18/2014","09:25","214CR0017028","THEFT","THEFT, ALL OTHERS","830 W GALENA","",""
"07/18/2014","09:28","214CR0017029","DETENTION BUSINESS","DETENTION BUSINESS","************","",""
"07/18/2014","09:29","214CR0017030","CIVIL PAPER SERVICE","CIVIL PAPER SERVICE","321 GRANITE MOUNTAIN RD","",""
"07/18/2014","09:50","214CR0017031","CIVIL PAPER SERVICE","CIVIL PAPER SERVICE","2900 ELM ST","",""
"07/18/2014","09:58","214CR0017032","HIT AND RUN","HIT AND RUN, UNATTENDED VEHICL","1858 TEXAS","",""
"07/18/2014","10:30","214CR0017033","JUVENILE RUNAWAY","JUVENILE RUNAWAY","************","",""
"07/18/2014","10:41","214CR0017034","UNWANTED PERSON","UNWANTED PERSON","************","",""
"07/18/2014","10:51","214CR0017035","VANDALISM/CRIMINAL MISCHIEF","VANDALISM/CRIMINAL MISCHIEF","FATHER SHEEHAN PARK","",""
"07/18/2014","11:00","214CR0017036","DETENTION BUSINESS","DETENTION BUSINESS","************","",""
"07/18/2014","11:05","214CR0017037","JUVENILE MISC","JUVENILE MISC","************","",""
"07/18/2014","11:17","214CR0017038","VANDALISM/CRIMINAL MISCHIEF","CRIMINAL TRESPASS TO PROPERTY","718 S COLORADO","",""
"07/18/2014","11:56","214CR0017039","WANTED PERSON","WANTED PERSON","************","",""
"07/18/2014","12:20","214CR0017040","T/S","T/S @ GEORGE ST AND MONTANA ST","GEORGE ST AND MONTANA ST","",""
"07/18/2014","12:30","214CR0017041","WANTED PERSON","WANTED PERSON","************","",""
"07/18/2014","12:40","214CR0017042","LED BUSINESS","LED BUSINESS","155 W QUARTZ","",""
"07/18/2014","12:48","214CR0017043","VEHICLE INSPECTION","VEHICLE INSPECTION","1963 LOWELL","",""
"07/18/2014","12:54","214CR0017044","SUICIDE ATTEMPT/THREAT","SUICIDE ATTEMPT/THREAT","************","",""
"07/18/2014","13:33","214CR0017045","CIVIL PAPER SERVICE","CIVIL PAPER SERVICE","640 W BROADWAY","",""
"07/18/2014","13:46","214CR0017046","WELFARE CHECK","WELFARE CHECK","3825 GREEN LANE #11","",""
"07/18/2014","13:54","214CR0017047","WELFARE CHECK","WELFARE CHECK","COBBAN AND HARRISON","",""
"07/18/2014","14:08","214CR0017048","SUSPICIOUS ACTIVITY","SUSPICIOUS ACTIVITY","3900 BLK HARRISON AVE","",""
"07/18/2014","14:12","214CR0017049","THEFT","THEFT","3475 MONROE AVE","",""
"07/18/2014","14:47","214CR0017050","HARASSMENT","HARASSMENT","612 W SILVER ST","",""
"07/18/2014","14:53","214CR0017051","MEDICAL - EMERGENCY","MEDICAL - EMERGENCY","207 W PARK ST APT #7","",""
"07/18/2014","15:03","214CR0017052","TRAFFIC HAZARD","TRAFFIC HAZARD","2001 S MONTANA","",""
"07/18/2014","15:08","214CR0017053","ATL","ATL","I15N EXIT 124","",""
"07/18/2014","15:13","214CR0017054","SUSPICIOUS ACTIVITY","SUSPICIOUS ACTIVITY","537 S MAIN ST","",""
"07/18/2014","15:18","214CR0017055","ANIMAL COMPLAINT-BITE","ANIMAL COMPLAINT-BITE","919 DELAWARE AVE","",""
"07/18/2014","15:21","214CR0017056","TRAFFIC HAZARD","TRAFFIC HAZARD","CENTER // WEST DR","",""
"07/18/2014","15:24","214CR0017057","STOLEN VEHICLE","MOTOR VEHICLE THEFT","226 E BROADWAY ST","",""
"07/18/2014","15:31","214CR0017058","THEFT","THEFT","105 ROCKY MOUNTAIN LN","",""
"07/18/2014","15:39","214CR0017059","DISTURBANCE-NOISE","DISTURBANCE-NOISE","PAXSON AND GILMAN ST","",""
"07/18/2014","15:44","214CR0017060","ANIMAL COMPLAINT","ANIMAL COMPLAINT","1403 SILVER BOW HOMES","",""
"07/18/2014","16:03","214CR0017061","SEXUAL ASSAULT","SEXUAL ASSAULT","************","",""
"07/18/2014","16:04","214CR0017062","VEHICLE INSPECTION","VEHICLE INSPECTION","3023 WHARTON ST","",""
"07/18/2014","16:08","214CR0017063","MEDICAL - EMERGENCY","MEDICAL - EMERGENCY","2107 ROBERTS AVE","",""
"07/18/2014","16:21","214CR0017064","VANDALISM/CRIMINAL MISCHIEF","VANDALISM/CRIMINAL MISCHIEF","CHESTER STEELE PARK","",""
"07/18/2014","16:23","214CR0017065","THEFT","THEFT FROM MOTOR VEHICLE","3700 HARRISON AVE","",""
"07/18/2014","16:26","214CR0017066","ANIMAL COMPLAINT","ANIMAL COMPLAINT","1301 E SECOND ST","",""
"07/18/2014","16:31","214CR0017067","THEFT","THEFT","2732 OTTAWA ST","",""
"07/18/2014","16:33","214CR0017068","WANTED PERSON","WANTED PERSON","************","",""
"07/18/2014","16:43","214CR0017069","WANTED PERSON","WANTED PERSON","************","",""
"07/18/2014","16:55","214CR0017070","RESTRAINING ORDER VIOLATION","VIOLATION OF PROTECTION ORDER","1742 FARRAGUT AVE","",""
"07/18/2014","16:58","214CR0017071","WELFARE CHECK","WELFARE CHECK","3345 SANDERS ST","",""
"07/18/2014","17:13","214CR0017072","WANTED PERSON","WANTED PERSON","************","",""
"07/18/2014","17:25","214CR0017073","THEFT","THEFT, ALL OTHERS","848 W PARK ST","",""
"07/18/2014","17:27","214CR0017074","ACCIDENT","ACCIDENT","3901 HARRISON AVE","",""
"07/18/2014","17:30","214CR0017075","WANTED PERSON","WANTED PERSON","************","",""
"07/18/2014","17:34","214CR0017076","T/S","T/S","PORPHYRY ST AND MONTANA ST","",""
"07/18/2014","17:38","214CR0017077","SUSPICIOUS ACTIVITY","SUSPICIOUS ACTIVITY","1834 YALE AVE","",""
"07/18/2014","17:41","214CR0017078","T/S","T/S @ HARRISON AVE // ELIZABETH WARR","HARRISON AVE // ELIZABETH WARR","",""
"07/18/2014","17:46","214CR0017079","SUSPICIOUS ACTIVITY","RESISTING ARREST","700 BLK W GALENA ST","ARREST(s) MADE",""
"07/18/2014","18:15","214CR0017080","BURGLARY","CRIMINAL MISCHIEF","11 BENNETT ST","",""
"07/18/2014","18:39","214CR0017081","STOLEN VEHICLE","STOLEN VEHICLE","2510 HANCOCK AVE","",""
"07/18/2014","18:47","214CR0017082","SUSPICIOUS ACTIVITY","SUSPICIOUS ACTIVITY","WALKING TRAIL AT LEXINGTON","",""
"07/18/2014","19:20","214CR0017083","SUICIDE ATTEMPT/THREAT","SUICIDE ATTEMPT/THREAT","************","",""
"07/18/2014","19:40","214CR0017084","SUSPICIOUS ACTIVITY","SUSPICIOUS ACTIVITY","CHULA ST AND LEXINGTON AVE","",""
"07/18/2014","20:31","214CR0017085","UNWANTED PERSON","UNWANTED PERSON","************","",""
"07/18/2014","20:38","214CR0017086","FOUND PROPERTY","FOUND PROPERTY","************","",""
"07/18/2014","20:41","214CR0017087","DISTURBANCE","DISORDERLY CONDUCT","400 S CLARK ST","ARREST(s) MADE",""
"07/18/2014","20:43","214CR0017088","MEDICAL - EMERGENCY","MEDICAL - EMERGENCY","3131 AMHERST AV","",""
"07/18/2014","20:48","214CR0017089","ACCIDENT- INJURY(MHP)","ACCIDENT- INJURY(MHP)","52 SALMON FLY DR","",""
"07/18/2014","21:03","214CR0017090","ALARM - BURGLARY","ALARM - BURGLARY","************","",""
"07/18/2014","21:23","214CR0017091","THEFT","THEFT FROM MOTOR VEHICLE","1360 JOY LN","",""
"07/18/2014","21:28","214CR0017092","SUSPICIOUS ACTIVITY","SUSPICIOUS ACTIVITY","GALENA ST AND MAIN ST","",""
"07/18/2014","21:31","214CR0017093","UNKNOWN PROBLEM","UNKNOWN PROBLEM","302 SILVER BOW HOMES","",""
"07/18/2014","21:37","214CR0017094","ATL","ATL","2735 MOULTON ST","",""
"07/18/2014","21:40","214CR0017095","DISTURBANCE-NOISE","DISTURBANCE-NOISE","1009 W PLATINUM ST","",""
"07/18/2014","21:42","214CR0017096","DRUGS","DRUGS","************","",""
"07/18/2014","21:56","214CR0017097","ATL","ATL","900 BLK N EXCELSIOR AVE","",""
"07/18/2014","21:56","214CR0017098","WELFARE CHECK","WELFARE CHECK","406 SILVER BOW HOMES","",""
"07/18/2014","21:57","214CR0017099","FIRE - STRUCTURE","FIRE - STRUCTURE","2344 GRAND AVE","",""
"07/18/2014","22:08","214CR0017100","THEFT","THEFT","400 S CLARK ST","",""
"07/18/2014","22:14","214CR0017101","WANTED PERSON","OUT OF JURISDICTION - MISD","814 PLACER ST","",""
"07/18/2014","22:40","214CR0017102","DRUGS","DRUGS","************","",""
"07/18/2014","22:54","214CR0017103","DISTURBANCE","DISTURBANCE","1127 SCHLEY AVE","",""
"07/18/2014","23:15","214CR0017104","LED BUSINESS","CARELESS DRIVING","1127 SCHLEY","",""
"07/18/2014","23:18","214CR0017105","DISTURBANCE","DISTURBANCE","SILVER BOW HOMES","",""
"07/18/2014","23:24","214CR0017106","FIRE - OTHER","FIRE - OTHER","1700 BLK FLORENCE AVE","",""
"07/18/2014","23:33","214CR0017107","FIRE- GAS ODOR","FIRE- GAS ODOR","1324 SUNRISE LN","",""
"07/18/2014","23:37","214CR0017108","DISTURBANCE","DISTURBANCE","300 BLK S ARIZONA ST","",""
"07/18/2014","23:43","214CR0017110","VANDALISM/CRIMINAL MISCHIEF","CRIMINAL MISCHIEF","135 W BROADWAY","",""
"07/18/2014","23:43","214CR0017109","ALARM - BURGLARY","ALARM - BURGLARY","************","",""
"07/18/2014","23:53","214CR0017112","INTOXICATED PERSON","INTOXICATED PERSON","MONTANA ST AND PARK ST","",""
"07/19/2014","00:07","214CR0017113","ASSAULT","PFMA - MINOR INJ/PHYSICAL CONT","2215 WARREN AVE","ARREST(s) MADE",""
"07/19/2014","00:13","214CR0017114","INTOXICATED PERSON","INTOXICATED PERSON","106 W BROADWAY ST","",""
"07/19/2014","00:14","214CR0017115","STOLEN VEHICLE","STOLEN VEHICLE","DAKOTA AND PARK","",""
"07/19/2014","00:21","214CR0017116","ATL","AGGRAVATED DUI","PARROT AND HOBSON","ARREST(s) MADE",""
"07/19/2014","00:30","214CR0017117","THEFT","THEFT, ALL OTHERS","9 N MAIN ST","ARREST(s) MADE",""
"07/19/2014","00:31","214CR0017118","T/S","T/S @ ","","",""
"07/19/2014","00:46","214CR0017119","DISTURBANCE","DISTURBANCE","1512 EASY ST","",""
"07/19/2014","00:54","214CR0017120","ATL","ATL","4900 BLK HARRISON AVE","",""
"07/19/2014","01:00","214CR0017121","SUSPICIOUS ACTIVITY","SUSPICIOUS ACTIVITY","1416 BROWNING ST","",""
"07/19/2014","01:12","214CR0017122","CITIZEN AID","CITIZEN AID","3345 HARRISON AVE","",""
"07/19/2014","01:16","214CR0017123","SUSPICIOUS ACTIVITY","POSSESS ALCOHOL OR INTOXICANT","HILL AND GILLMAN","ARREST(s) MADE",""
"07/19/2014","01:19","214CR0017124","DISTURBANCE","ASSAULT, SIMPLE","GALENA ST AND MAIN ST","ARREST(s) MADE",""
"07/19/2014","01:27","214CR0017125","DISTURBANCE-NOISE","DISTURBANCE-NOISE","1400 BLK S WARREN","",""
"07/19/2014","01:42","214CR0017126","DISTURBANCE","ASSAULT, SIMPLE","2 E GALENA","",""
"07/19/2014","01:53","214CR0017127","ALARM - BURGLARY","ALARM - BURGLARY","************","",""
"07/19/2014","02:05","214CR0017128","ALL OTHER","ALL OTHER","WYOMING ST AND PARK ST","",""
"07/19/2014","02:20","214CR0017129","INTOXICATED PERSON","POSSESS ALCOHOL OR INTOXICANT","PARK ST AND MAIN ST","",""
"07/19/2014","02:23","214CR0017130","WANTED PERSON","CRIMINAL CONTEMPT","9 N MAIN ST","ARREST(s) MADE",""
"07/19/2014","02:35","214CR0017131","INTOXICATED PERSON","INTOXICATED PERSON","GALENA ST AND MAIN ST","",""
"07/19/2014","02:46","214CR0017132","MEDICAL - EMERGENCY","MEDICAL - EMERGENCY","304 N MAIN ST","",""
"07/19/2014","02:54","214CR0017133","DISTURBANCE-NOISE","DISTURBANCE-NOISE","2600 BLK ST ANNS","",""
"07/19/2014","03:04","214CR0017135","SUSPICIOUS ACTIVITY","SUSPICIOUS ACTIVITY","ST ANN AND SHERMAN","",""
"07/19/2014","03:04","214CR0017134","T/S","T/S @ ","","",""
"07/19/2014","03:09","214CR0017136","SUSPICIOUS ACTIVITY","SUSPICIOUS ACTIVITY","FLORAL BLVD AND SHERIDAN AVE","",""
"07/19/2014","03:11","214CR0017137","SUSPICIOUS ACTIVITY","SUSPICIOUS ACTIVITY","2500 SHERMAN AVE","",""
"07/19/2014","03:20","214CR0017138","UNWANTED PERSON","UNWANTED PERSON","************","",""
"07/19/2014","03:25","214CR0017139","DISTURBANCE","DISTURBANCE","2600 S MONTANA ST","",""
"07/19/2014","03:35","214CR0017140","THEFT","THEFT, ALL OTHERS","414 W GRANITE ST","",""
"07/19/2014","04:10","214CR0017141","ALARM - BURGLARY","ALARM - BURGLARY","************","",""
"07/19/2014","04:20","214CR0017142","UNKNOWN PROBLEM","UNKNOWN PROBLEM","3740 S ARIZONA ST","",""
"07/19/2014","05:01","214CR0017143","T/S","T/S","RAMSAY EXIT","",""
"07/19/2014","05:17","214CR0017144","DISTURBANCE-NOISE","DISTURBANCE-NOISE","306 N MAIN ST","",""
"07/19/2014","05:49","214CR0017145","MEDICAL - EMERGENCY","MEDICAL - EMERGENCY","910 EVANS G3","",""
"07/19/2014","08:02","214CR0017146","WANTED PERSON","CRIMINAL CONTEMPT","225 N ALASKA","ARREST(s) MADE",""
"07/19/2014","08:20","214CR0017147","SUSPICIOUS ACTIVITY","SUSPICIOUS ACTIVITY","MONTANA AND PARK","",""
"07/19/2014","08:35","214CR0017148","ALARM - BURGLARY","ALARM - BURGLARY","************","",""
"07/19/2014","08:54","214CR0017149","OPEN BUILDING","OPEN BUILDING","205 W ALUMINUM","",""
"07/19/2014","09:05","214CR0017150","T/S","T/S @ 2500 MASSACHUSETTS AVE","2500 MASSACHUSETTS AVE","",""
"07/19/2014","10:14","214CR0017151","MEDICAL - EMERGENCY","MEDICAL - EMERGENCY","I15 // I90 JUNCTION","",""
"07/19/2014","10:55","214CR0017152","MEDICAL - EMERGENCY","MEDICAL - EMERGENCY","1500 FAIRMONT RD","",""
"07/19/2014","11:29","214CR0017153","T/S","T/S @ COBBAN AND HARRISON","COBBAN AND HARRISON","",""
"07/19/2014","11:40","214CR0017154","CIVIL PAPER SERVICE","CIVIL PAPER SERVICE","THIRD AND UTAH","",""
"07/19/2014","11:47","214CR0017155","ACCIDENT - INJURY","ACCIDENT - INJURY","3900 HARRISON AVE","",""
"07/19/2014","12:05","214CR0017156","ACCIDENT","ACCIDENT","2544 HARRISON AVE","",""
"07/19/2014","12:09","214CR0017157","ANIMAL COMPLAINT","ANIMAL COMPLAINT","1000 GEORGE ST","",""
"07/19/2014","12:41","214CR0017158","WANTED PERSON","WANTED PERSON","************","",""
"07/19/2014","12:50","214CR0017159","SUSPICIOUS ACTIVITY","SUSPICIOUS ACTIVITY","112000 W BROWNS GULCH RD","",""
"07/19/2014","13:53","214CR0017160","FIRE - STRUCTURE","FIRE - STRUCTURE","1126 OREGON AVE","",""
"07/19/2014","14:12","214CR0017161","WANTED PERSON","WANTED PERSON","************","",""
"07/19/2014","14:12","214CR0017162","ALL OTHER","ALL OTHER","2124 1/2 ABERDEEN ST","",""
"07/19/2014","14:53","214CR0017163","T/S","T/S","GRAND AVE // HOWARD ST","",""
"07/19/2014","14:58","214CR0017164","WELFARE CHECK","WELFARE CHECK","FRONT ST STATION","",""
"07/19/2014","15:03","214CR0017165","DISTURBANCE","DISTURBANCE","1375 JOY LN","",""
"07/19/2014","15:12","214CR0017166","THEFT","THEFT, SHOPLIFT","3901 HARRISON AVE","ARREST(s) MADE",""
"07/19/2014","15:23","214CR0017167","FIRE - OTHER","FIRE - OTHER","826 W PARK ST","",""
"07/19/2014","15:37","214CR0017168","DISTURBANCE","DISTURBANCE","324 N ALABAMA ST","",""
"07/19/2014","15:54","214CR0017169","ASSIST OTHER AGENCY","ASSIST OTHER AGENCY","2520 AMHERST AVE","",""
"07/19/2014","16:27","214CR0017170","VANDALISM/CRIMINAL MISCHIEF","CRIMINAL MISCHIEF","612 W SILVER ST","",""
"07/19/2014","16:35","214CR0017171","WELFARE CHECK","WELFARE CHECK","324 N ALABAMA ST","",""
"07/19/2014","16:59","214CR0017172","SUICIDE ATTEMPT/THREAT","SUICIDE ATTEMPT/THREAT","************","",""
"07/19/2014","16:59","214CR0017173","THEFT","THEFT, SHOPLIFT","3901 HARRISON AVE","",""
"07/19/2014","17:23","214CR0017174","ATL","ATL","2307 HARRISON AVE","",""
"07/19/2014","17:28","214CR0017175","INTOXICATED PERSON","INTOXICATED PERSON","5100 HARRISON AVE","",""
"07/19/2014","17:30","214CR0017176","TRAFFIC HAZARD","TRAFFIC HAZARD","I15N EXIT 127B","",""
"07/19/2014","19:16","214CR0017177","LED BUSINESS","LED BUSINESS","BSB GUN RANGE","",""
"07/19/2014","19:32","214CR0017178","SUSPICIOUS ACTIVITY","SUSPICIOUS ACTIVITY","722 COLORADO ST","",""
"07/19/2014","19:41","214CR0017179","DISTURBANCE-NOISE","DISTURBANCE-NOISE","1223 W GRANITE ST","",""
"07/19/2014","19:56","214CR0017180","CITIZEN AID","CITIZEN AID","1429 WARREN AVE","",""
"07/19/2014","20:00","214CR0017181","TRAFFIC HAZARD","TRAFFIC HAZARD","82 HECLA","",""
"07/19/2014","20:24","214CR0017182","JUVENILE MISC","ASSAULT, SIMPLE","657 W GRANITE ST","ARREST(s) MADE",""
"07/19/2014","20:28","214CR0017183","SUSPICIOUS ACTIVITY","SUSPICIOUS ACTIVITY","10 BLK N MAIN","",""
"07/19/2014","20:42","214CR0017184","ATL","ATL","I90 MM233 W BND","",""
"07/19/2014","21:25","214CR0017185","SUICIDE ATTEMPT/THREAT","SUICIDE ATTEMPT/THREAT","************","",""
"07/19/2014","21:39","214CR0017186","DISTURBANCE","ASSAULT, SIMPLE","657 W GRANITE ST","ARREST(s) MADE",""
"07/19/2014","21:46","214CR0017187","MEDICAL - EMERGENCY","MEDICAL - EMERGENCY","1117 E FRONT","",""
"07/19/2014","22:08","214CR0017188","SUICIDE ATTEMPT/THREAT","SUICIDE ATTEMPT/THREAT","************","",""
"07/19/2014","22:25","214CR0017190","SUSPICIOUS ACTIVITY","SUSPICIOUS ACTIVITY","JEREMY BULLOCK SOCCER FIELD","",""
"07/19/2014","22:41","214CR0017191","ACCIDENT-MHP","ACCIDENT-MHP","I15 MM 122 SB","",""
"07/19/2014","23:25","214CR0017192","HARASSMENT","HARASSMENT","300 BLK SILVER","",""
"07/19/2014","23:31","214CR0017193","SUSPICIOUS ACTIVITY","POSSESSION OF DANGEROUS DRUGS","1370 HARRISON AVE","ARREST(s) MADE",""
"07/19/2014","23:32","214CR0017194","ATL","ATL","I15 AND MONTANA ST","",""
"07/19/2014","23:34","214CR0017195","SUSPICIOUS ACTIVITY","SUSPICIOUS ACTIVITY","10 BLK E PARK","",""
"07/19/2014","23:41","214CR0017196","ANIMAL COMPLAINT","ANIMAL COMPLAINT","","",""
"07/19/2014","23:48","214CR0017197","ALL OTHER","ALL OTHER","326 S WASHINGTON","",""
"07/19/2014","23:59","214CR0017198","T/S","T/S","GRAND AVE AND WILSON ST","",""
"07/20/2014","00:04","214CR0017200","DISTURBANCE-NOISE","DISTURBANCE-NOISE","2929 HARRISON AVE","",""
"07/20/2014","00:04","214CR0017199","T/S","T/S","HARRISON AND ROOSEVELT","",""
"07/20/2014","00:15","214CR0017201","MEDICAL - EMERGENCY","MEDICAL - EMERGENCY","3120 KOSSUTH ST","",""
"07/20/2014","00:32","214CR0017202","T/S","T/S","PHILLIPS ST AND MEADE ST","",""
"07/20/2014","00:37","214CR0017203","DISTURBANCE","PFMA - MINOR INJ/PHYSICAL CONT","101 W CENTER ST","ARREST(s) MADE",""
"07/20/2014","00:47","214CR0017204","DISTURBANCE","BURGLARY, RESIDENCE","1025 W GRANITE","ARREST(s) MADE",""
"07/20/2014","01:01","214CR0017206","ATL","ATL","","",""
"07/20/2014","01:01","214CR0017205","SUSPICIOUS ACTIVITY","SUSPICIOUS ACTIVITY","I15 MM 116 NB","",""
"07/20/2014","01:12","214CR0017207","MEDICAL - EMERGENCY","MEDICAL - EMERGENCY","1204 E SECOND","",""
"07/20/2014","01:53","214CR0017208","INTOXICATED PERSON","INTOXICATED PERSON","I15 MM 127 W BND","",""
"07/20/2014","01:54","214CR0017209","DISTURBANCE","DISTURBANCE","1736 LONGFELLOW 10","",""
"07/20/2014","02:20","214CR0017210","T/S","DUI - (REFUSAL)","DAHLGREN ST AND OTTAWA ST","ARREST(s) MADE",""
"07/20/2014","02:37","214CR0017211","DISTURBANCE","DISTURBANCE","910 EVANS AVE APT G6","",""
"07/20/2014","02:58","214CR0017212","DISTURBANCE-NOISE","DISTURBANCE-NOISE","1401 SILVER BOW HOMES","",""
"07/20/2014","03:12","214CR0017213","DISTURBANCE","DISTURBANCE","2315 PINE ST","",""
"07/20/2014","03:46","214CR0017214","INTOXICATED PERSON","INTOXICATED PERSON","PARK ST AND MAIN ST","",""
"07/20/2014","03:47","214CR0017215","SUSPICIOUS ACTIVITY","DUI - (REFUSAL)","122005 NISSLER RD MOTEL 6","ARREST(s) MADE",""
"07/20/2014","04:09","214CR0017216","MEDICAL - EMERGENCY","MEDICAL - EMERGENCY","1324 HARRISON AVE","",""
"07/20/2014","04:14","214CR0017217","SUSPICIOUS ACTIVITY","SUSPICIOUS ACTIVITY","BROADWAY ST AND MAIN ST","",""
"07/20/2014","06:24","214CR0017218","ANIMAL COMPLAINT","ANIMAL COMPLAINT","EMMETT ST AND SILVER","",""
"07/20/2014","08:00","214CR0017219","VANDALISM/CRIMINAL MISCHIEF","CRIMINAL MISCHIEF","2 REDWOOD DR","",""
"07/20/2014","08:07","214CR0017220","ABANDONED VEHICLE","ABANDONED VEHICLE","2900 S MONTANA","",""
"07/20/2014","08:20","214CR0017221","SUSPICIOUS ACTIVITY","SUSPICIOUS ACTIVITY","1324 HARRISON AVE","",""
"07/20/2014","08:49","214CR0017222","ATL","ATL","24 E COPPER ST","",""
"07/20/2014","08:56","214CR0017223","CIVIL PAPER SERVICE","CIVIL PAPER SERVICE","55 BASIN CREEK RD","",""
"07/20/2014","09:18","214CR0017224","WELFARE CHECK","WELFARE CHECK","3001 BUSCH","",""
"07/20/2014","09:27","214CR0017225","T/S","T/S","MONTANA AND BROADWAY","",""
"07/20/2014","09:55","214CR0017226","T/S","T/S @ ROWE AND CHULA","ROWE AND CHULA","",""
"07/20/2014","09:56","214CR0017227","CIVIL PAPER SERVICE","CIVIL PAPER SERVICE","624 E FRONT ST","",""
"07/20/2014","10:04","214CR0017228","T/S","T/S @ LEXINGTON AVE AND HOBSON ST","LEXINGTON AVE AND HOBSON ST","",""
"07/20/2014","10:16","214CR0017229","CIVIL PAPER SERVICE","CIVIL PAPER SERVICE","1118 FARRELL","",""
"07/20/2014","10:25","214CR0017230","ANIMAL COMPLAINT","ANIMAL COMPLAINT","207 W PARK #7","",""
"07/20/2014","10:32","214CR0017231","THEFT","THEFT","514 W SILVER","",""
"07/20/2014","10:47","214CR0017232","FRAUD","FRAUD","2137 JOHNS","",""
"07/20/2014","11:11","214CR0017233","TRAFFIC HAZARD","TRAFFIC HAZARD","HOLMES AND HILL","",""
"07/20/2014","11:14","214CR0017234","T/S","T/S","MONTANA AND SECOND","",""
"07/20/2014","11:34","214CR0017235","ABANDONED VEHICLE","ABANDONED VEHICLE","HOLMES AND HILL","",""
"07/20/2014","11:46","214CR0017236","CITIZEN AID","CITIZEN AID","I15 MM 126 S BND","",""
"07/20/2014","12:02","214CR0017237","INTIMIDATION","PFMA - REASONABLE APPREHENSION","910 EVANS #G2","",""
"07/20/2014","12:44","214CR0017238","ALL OTHER","ALL OTHER","1808 S ARIZONA","",""
"07/20/2014","12:55","214CR0017239","THEFT","THEFT OF VEHICLE PARTS/ACCESSO","2400 BLK AMHERST","",""
"07/20/2014","13:13","214CR0017240","MEDICAL - EMERGENCY","MEDICAL - EMERGENCY","12 ONEILL #B","",""
"07/20/2014","13:20","214CR0017241","HIT AND RUN","HIT AND RUN, UNATTENDED VEHICL","3131 HARRISON AVE","",""
"07/20/2014","13:42","214CR0017242","MEDICAL - EMERGENCY","MEDICAL - EMERGENCY","9 LAIRD ST","",""
"07/20/2014","13:44","214CR0017243","DISTURBANCE","DISTURBANCE","201 HOBSON AVE","",""
"07/20/2014","13:54","214CR0017244","ASSIST OTHER AGENCY","ASSIST OTHER AGENCY","I90 MM 234 W BND","",""
"07/20/2014","13:55","214CR0017245","TRAFFIC","ILL. ENTRANCE/XIT ACCESS HWY","I15 EB MM 124","",""
"07/20/2014","14:23","214CR0017246","WANTED PERSON","WANTED PERSON","************","",""
"07/20/2014","14:45","214CR0017247","BUSINESS CHECK","BUSINESS CHECK","541 S MAIN ST","",""
"07/20/2014","15:01","214CR0017248","FIRE - OTHER","FIRE - OTHER","740 W PARK ST","",""
"07/20/2014","15:23","214CR0017249","T/S","T/S","900 BLK S MAIN ST","",""
"07/20/2014","15:32","214CR0017250","WANTED PERSON","WANTED PERSON","************","",""
"07/20/2014","15:36","214CR0017251","FIRE - VEHICLE","FIRE - VEHICLE","I90W MM 216","",""
"07/20/2014","15:52","214CR0017252","MEDICAL - EMERGENCY","MEDICAL - EMERGENCY","3345 SANDERS ST","",""
"07/20/2014","15:59","214CR0017253","FOUND PROPERTY","FOUND PROPERTY","************","",""
"07/20/2014","16:01","214CR0017254","FRAUD","FRAUD","318 S EXCELSIOR","",""
"07/20/2014","16:08","214CR0017255","T/S","T/S @ HARRISON AVE // I15S ON RAMP","HARRISON AVE // I15S ON RAMP","",""
"07/20/2014","16:48","214CR0017256","MEDICAL - EMERGENCY","MEDICAL - EMERGENCY","HWY 2 // ROOSEVELT DRIVE","",""
"07/20/2014","16:56","214CR0017257","JUVENILE MISC","JUVENILE MISC","************","",""
"07/20/2014","17:02","214CR0017258","MEDICAL - EMERGENCY","MEDICAL - EMERGENCY","1001 W GALENA ST","",""
"07/20/2014","17:06","214CR0017259","THEFT","THEFT","2555 PARROT ST","",""
"07/20/2014","17:17","214CR0017260","DISTURBANCE","PFMA - MINOR INJ/PHYSICAL CONT","939 W COPPER ST","",""
"07/20/2014","17:51","214CR0017261","THEFT","THEFT","1324 HARRISON AVE","",""
"07/20/2014","18:42","214CR0017262","WELFARE CHECK","WELFARE CHECK","1515 OREGON AVE #307","",""
"07/20/2014","19:03","214CR0017263","ACCIDENT-MHP","ACCIDENT-MHP","122000 BROWNS GULCH RD","",""
"07/20/2014","19:18","214CR0017264","DISTURBANCE","DISTURBANCE","1324 HARRISON AVE","",""
"07/20/2014","19:19","214CR0017265","THEFT","THEFT","1370 HARRISON AVE","",""
"07/20/2014","19:55","214CR0017266","WELFARE CHECK","WELFARE CHECK","2605 HARRISON AVE","",""
"07/20/2014","20:08","214CR0017267","ALARM - BURGLARY","ALARM - BURGLARY","************","",""
"07/20/2014","20:11","214CR0017268","ASSIST OTHER AGENCY","ASSIST OTHER AGENCY","SAFE SPACE","",""
"07/20/2014","20:16","214CR0017269","FIREWORKS COMPLAINT","FIREWORKS COMPLAINT","1901 MCKINLEY AVE","",""
"07/20/2014","20:36","214CR0017270","T/S","T/S @ 2544 HARRISON AVE","2544 HARRISON AVE","",""
"07/20/2014","20:41","214CR0017271","MEDICAL - EMERGENCY","MEDICAL - EMERGENCY","2611 HARRISON AVE","",""
"07/20/2014","21:12","214CR0017272","ASSIST OTHER AGENCY","ASSIST OTHER AGENCY","155 W QUARTZ ST","",""
"07/20/2014","21:17","214CR0017273","UNWANTED PERSON","UNWANTED PERSON","************","",""
"07/20/2014","21:25","214CR0017274","MISSING PERSON","MISSING PERSON","************","",""
"07/20/2014","21:37","214CR0017275","SUSPICIOUS ACTIVITY","SUSPICIOUS ACTIVITY","1375 HARRISON AVE","",""
"07/20/2014","21:41","214CR0017276","INTIMIDATION","INTIMIDATION","1107 W PLATINUM ST","",""
"07/20/2014","21:44","214CR0017277","T/S","NO LIABILITY INSURANCE IN EFF.","UTAH AVE // THIRD ST","",""
"07/20/2014","21:50","214CR0017278","INTIMIDATION","INTIMIDATION","ALABAMA ST // SILVER ST","",""
"07/20/2014","21:52","214CR0017279","DISTURBANCE-NOISE","DISTURBANCE-NOISE","1007 OREGON ST","",""
"07/20/2014","22:03","214CR0017280","HIT AND RUN","HIT AND RUN","PLATIUM AND EXCELSIOR","",""
"07/20/2014","22:22","214CR0017281","BURGLARY","BURGLARY, RESIDENCE","920 S MONTANA ST # 5","",""
"07/20/2014","22:38","214CR0017282","ACCIDENT","AGGRAVATED DUI","PLATINUM ST AND MONTANA ST","ARREST(s) MADE",""
"07/20/2014","22:40","214CR0017283","T/S","DRIVING W/OUT VALID D/L","GOLD AND OPHIR","",""
"07/20/2014","22:47","214CR0017284","JUVENILE MISC","JUVENILE MISC","************","",""
"07/20/2014","23:20","214CR0017285","HARASSMENT","HARASSMENT","1700 BLK WALL ST","",""
"07/20/2014","23:35","214CR0017286","JUVENILE MISC","JUVENILE MISC","************","",""
"07/20/2014","23:38","214CR0017287","ATL","ATL","HOLMES AND WYNNE AVE","",""
"07/20/2014","23:51","214CR0017288","SUICIDE ATTEMPT/THREAT","SUICIDE ATTEMPT/THREAT","************","",""
"07/20/2014","23:53","214CR0017289","ANIMAL COMPLAINT","ANIMAL COMPLAINT","1101 SILVER BOW HOMES","",""
"07/21/2014","01:01","214CR0017290","ALARM - BURGLARY","CRIMINAL MISCHIEF","28 DEWEY BLVD","",""
"07/21/2014","03:39","214CR0017291","ASSAULT","ASSAULT","************","",""
"07/21/2014","04:46","214CR0017292","T/S","DRIVING W/OUT VALID D/L","2053 HARRISON AVE","",""
"07/21/2014","06:36","214CR0017294","MEDICAL - EMERGENCY","MEDICAL - EMERGENCY","1950 YALE","",""
"07/21/2014","06:51","214CR0017295","VANDALISM/CRIMINAL MISCHIEF","CRIMINAL MISCHIEF","3500 WHITEWAY BLVD","",""
"07/21/2014","08:06","214CR0017296","T/S","T/S","PARK ST AND MONTANA ST","",""

BSB police log ending July 18, 2014

"07/17/2014","00:08","214CR0016902","BUSINESS CHECK","BUSINESS CHECK","3700 HARRISON MAGIC DIAMOND","",""
"07/17/2014","00:08","214CR0016903","MEDICAL - EMERGENCY","MEDICAL - EMERGENCY","1904 FLORIDA","",""
"07/17/2014","00:24","214CR0016904","T/S","T/S","WARREN AVE AND B ST","",""
"07/17/2014","00:24","214CR0016905","T/S","T/S @ ","","",""
"07/17/2014","00:36","214CR0016906","SUSPICIOUS ACTIVITY","SUSPICIOUS ACTIVITY","2500 SHERMAN WHITTIER SCHOOL","",""
"07/17/2014","00:43","214CR0016907","MEDICAL - EMERGENCY","MEDICAL - EMERGENCY","3499 HARRISON AVE/HAMPTON INN","",""
"07/17/2014","00:50","214CR0016908","T/S","T/S","SAMPSON AND LEXINGTON","",""
"07/17/2014","01:17","214CR0016909","SUSPICIOUS ACTIVITY","SUSPICIOUS ACTIVITY","1000 BLK W WOOLMAN ST","",""
"07/17/2014","01:20","214CR0016910","THEFT","THEFT, SHOPLIFT","2711 HARRISON TOWN PUMP","",""
"07/17/2014","01:28","214CR0016911","SUSPICIOUS ACTIVITY","SUSPICIOUS ACTIVITY","3400 BLK OTTAWA","",""
"07/17/2014","02:03","214CR0016912","CITIZEN AID","CITIZEN AID","1000 GRIZZLY TRAIL TOWN PUMP","",""
"07/17/2014","02:18","214CR0016913","MEDICAL - EMERGENCY","MEDICAL - EMERGENCY","3517 OREGON AVE","",""
"07/17/2014","02:24","214CR0016914","ASSIST OTHER AGENCY","ASSIST OTHER AGENCY","I90 MM 219 WB","",""
"07/17/2014","04:00","214CR0016915","DISTURBANCE","DISTURBANCE","220 N WYOMING RODEWAY INN","",""
"07/17/2014","05:54","214CR0016916","T/S","T/S","1370 HARRISON TOWN PUMP","",""
"07/17/2014","06:00","214CR0016917","ALARM - MEDICAL","ALARM - MEDICAL","************","",""
"07/17/2014","06:11","214CR0016918","THEFT","THEFT, SHOPLIFT","2500 MASSACHUSETTS AVE","",""
"07/17/2014","06:29","214CR0016919","SUSPICIOUS ACTIVITY","SUSPICIOUS ACTIVITY","1324 HARRISON AVE","",""
"07/17/2014","07:16","214CR0016921","LED BUSINESS","LED BUSINESS","155 W QUARTZ","",""
"07/17/2014","07:16","214CR0016920","LED BUSINESS","LED BUSINESS","155 W QUARTZ","",""
"07/17/2014","07:17","214CR0016922","DETENTION BUSINESS","DETENTION BUSINESS","************","",""
"07/17/2014","07:27","214CR0016923","MAN WITH A GUN","MAN WITH A GUN","************","",""
"07/17/2014","08:22","214CR0016924","SUICIDE ATTEMPT/THREAT","SUICIDE ATTEMPT/THREAT","************","",""
"07/17/2014","08:27","214CR0016925","ALARM - BURGLARY","ALARM - BURGLARY","************","",""
"07/17/2014","08:54","214CR0016926","T/S","T/S","SHIELDS AVE AND MERCURY ST","",""
"07/17/2014","09:15","214CR0016927","WANTED PERSON","PROBATION VIOLATION","516 N WYOMING","ARREST(s) MADE",""
"07/17/2014","10:14","214CR0016928","FRAUD","FRAUD","","",""
"07/17/2014","11:20","214CR0016929","INFORMATION ONLY","INFORMATION ONLY","","",""
"07/17/2014","11:22","214CR0016930","ALARM - MEDICAL","ALARM - MEDICAL","************","",""
"07/17/2014","11:25","214CR0016931","HIT AND RUN","H&R INJ OR DEATH /NON INJ/PROP","CIVIC CENTER","",""
"07/17/2014","11:28","214CR0016932","MEDICAL - EMERGENCY","MEDICAL - EMERGENCY","120 N IDAHO","",""
"07/17/2014","11:49","214CR0016933","MISSING PERSON","MISSING PERSON","************","",""
"07/17/2014","12:00","214CR0016934","T/S","T/S","PLATINUM ST AND MONTANA ST","",""
"07/17/2014","12:01","214CR0016935","THEFT","THEFT","3109 DEXTER ST","",""
"07/17/2014","12:05","214CR0016936","ACCIDENT- INJURY(MHP)","ACCIDENT- INJURY(MHP)","I90 MM 210 WB","",""
"07/17/2014","12:20","214CR0016937","TRAFFIC","TRAFFIC","CIVIC CENTER RD AND HARRISON A","",""
"07/17/2014","12:40","214CR0016938","THEFT","THEFT FROM BUILDINGS","2084 HARRISON AVE","",""
"07/17/2014","13:11","214CR0016939","STOLEN VEHICLE","UNAUTHORIZED USE OF MOTOR VEH","523 S DAKOTA","",""
"07/17/2014","13:20","214CR0016940","ABANDONED VEHICLE","ABANDONED VEHICLE","ALASKA ST AND COPPER ST","",""
"07/17/2014","13:22","214CR0016941","WANTED PERSON","WANTED PERSON","************","",""
"07/17/2014","13:34","214CR0016942","T/S","T/S","DUNDEE ST AND FLORENCE AVE","",""
"07/17/2014","13:40","214CR0016943","LED BUSINESS","LED BUSINESS","155 W QUARTZ","",""
"07/17/2014","13:44","214CR0016944","ACCIDENT","STOP SIGN VIOLATION","GRAND AVE AND TEXAS AVE","",""
"07/17/2014","13:51","214CR0016945","CIVIL PAPER SERVICE","CIVIL PAPER SERVICE","1401 SILVER BOW HOMES","",""
"07/17/2014","13:55","214CR0016946","WANTED PERSON","WANTED PERSON","************","",""
"07/17/2014","14:03","214CR0016947","MEDICAL - EMERGENCY","MEDICAL - EMERGENCY","3901 HARRISON AVE","",""
"07/17/2014","14:07","214CR0016948","THEFT","THEFT","705 14TH ST","",""
"07/17/2014","14:16","214CR0016949","SUSPICIOUS ACTIVITY","SUSPICIOUS ACTIVITY","400 BLK ROOSEVELT DR","",""
"07/17/2014","14:40","214CR0016950","ALL OTHER","ALL OTHER","1204 E SECOND ST","",""
"07/17/2014","14:49","214CR0016951","MEDICAL - EMERGENCY","MEDICAL - EMERGENCY","3007 WYNNE AVE","",""
"07/17/2014","15:13","214CR0016952","CIVIL PAPER SERVICE","CIVIL PAPER SERVICE","1401 SILVER BOW HOMES","",""
"07/17/2014","15:18","214CR0016953","T/S","T/S","MONTANA AND GOLD","",""
"07/17/2014","15:23","214CR0016954","T/S","T/S","SILVER ST AND IDAHO ST","",""
"07/17/2014","15:27","214CR0016955","TRAFFIC HAZARD","TRAFFIC HAZARD","PLATINUM AND MONTANA","",""
"07/17/2014","15:34","214CR0016956","CIVIL PAPER SERVICE","CIVIL PAPER SERVICE","806 PLACER ST","",""
"07/17/2014","15:34","214CR0016957","FIRE- GAS ODOR","FIRE- GAS ODOR","823 S MAIN ST #4","",""
"07/17/2014","15:37","214CR0016958","SUSPICIOUS ACTIVITY","SUSPICIOUS ACTIVITY","PIONEER CONCRETE/843 MARYLAND","",""
"07/17/2014","15:55","214CR0016959","T/S","T/S","AMHERST ST AND HANCOCK ST","",""
"07/17/2014","16:07","214CR0016960","T/S","T/S","PLATINUM ST AND ARIZONA ST","",""
"07/17/2014","16:18","214CR0016961","WANTED PERSON","CRIMINAL CONTEMPT","2017 CALIFORNIA","ARREST(s) MADE",""
"07/17/2014","16:20","214CR0016962","ACCIDENT","ACCIDENT","DEWEY AND UTAH","",""
"07/17/2014","16:34","214CR0016963","ACCIDENT","ACCIDENT","DELMO LAKE AREA","",""
"07/17/2014","16:55","214CR0016964","ACCIDENT-MHP","ACCIDENT-MHP","I90 MM 216 WB","",""
"07/17/2014","16:57","214CR0016965","T/S","T/S @ BUTTE PLAZA MALL PARKING LOT","BUTTE PLAZA MALL PARKING LOT","",""
"07/17/2014","17:01","214CR0016966","CIVIL PAPER SERVICE","CIVIL PAPER SERVICE","43 E MISSOULA","",""
"07/17/2014","17:05","214CR0016967","WELFARE CHECK","WELFARE CHECK","2924 STATE ST","",""
"07/17/2014","17:05","214CR0016968","T/S","T/S","1900 BLK FLORENCE","",""
"07/17/2014","17:13","214CR0016969","CIVIL PAPER SERVICE","CIVIL PAPER SERVICE","201 HOBSON #31","",""
"07/17/2014","17:23","214CR0016970","T/S","T/S","MONTANA ST AND ALUMINUM ST","",""
"07/17/2014","17:28","214CR0016971","T/S","T/S @ WYOMING ST AND COPPER ST","WYOMING ST AND COPPER ST","",""
"07/17/2014","17:40","214CR0016972","T/S","T/S","PLATINUM AND ALUMINUM","",""
"07/17/2014","17:50","214CR0016973","T/S","T/S","1000 BLK S EXCELSIOR ST","",""
"07/17/2014","17:56","214CR0016975","WANTED PERSON","WANTED PERSON","************","",""
"07/17/2014","17:57","214CR0016974","T/S","T/S @ OREGON AVE AND DEWEY BLVD","OREGON AVE AND DEWEY BLVD","",""
"07/17/2014","18:10","214CR0016976","SUSPICIOUS ACTIVITY","SUSPICIOUS ACTIVITY","2500  BLK WALNUT","",""
"07/17/2014","18:21","214CR0016977","JUVENILE MISC","JUVENILE MISC","************","",""
"07/17/2014","18:27","214CR0016979","JUVENILE RUNAWAY","JUVENILE RUNAWAY","************","",""
"07/17/2014","18:29","214CR0016978","T/S","T/S","DEWEY BLVD AND HARRISON AVE","",""
"07/17/2014","18:35","214CR0016980","ACCIDENT- INJURY(MHP)","ACCIDENT- INJURY(MHP)","HWY 2 MM 80","",""
"07/17/2014","18:53","214CR0016981","DISTURBANCE","DISTURBANCE","2101 GRAND AVE","",""
"07/17/2014","18:53","214CR0016982","ASSAULT","ASSAULT","************","",""
"07/17/2014","18:54","214CR0016983","T/S","T/S","MONTANA ST AND GOLD ST","",""
"07/17/2014","19:19","214CR0016984","T/S","T/S @ HARRISON AND GRAND AVE","HARRISON AND GRAND AVE","",""
"07/17/2014","19:25","214CR0016985","PARKING COMPLAINT","PARKING COMPLAINT","1006 LONGFELLOW ST","",""
"07/17/2014","19:41","214CR0016986","SUSPICIOUS ACTIVITY","SUSPICIOUS ACTIVITY","COLORADO ST AND IRON ST","",""
"07/17/2014","20:06","214CR0016987","HARASSMENT","HARASSMENT","916 CALIFORNIA","",""
"07/17/2014","20:31","214CR0016990","DISTURBANCE","DISTURBANCE","300 ROW SILVER BOW HOMES","",""
"07/17/2014","20:44","214CR0016991","MEDICAL - EMERGENCY","MEDICAL - EMERGENCY","3766 HARRISON AVE/LESKOVARS","",""
"07/17/2014","22:12","214CR0016992","SUSPICIOUS ACTIVITY","SUSPICIOUS ACTIVITY","1900 BLK THORNTON ST","",""
"07/17/2014","22:19","214CR0016993","T/S","T/S","HARRISON AND COBBAN","",""
"07/17/2014","22:26","214CR0016994","SUSPICIOUS ACTIVITY","SUSPICIOUS ACTIVITY","GRANITE ST AND IDAHO ST","",""
"07/17/2014","22:47","214CR0016995","ATL","ATL","2000 BLK HARRISON","",""
"07/17/2014","23:02","214CR0016996","ASSIST OTHER AGENCY","ASSIST OTHER AGENCY","MONTANA AT I15","",""
"07/17/2014","23:04","214CR0016997","T/S","T/S","WASHINGTON AND PARK","",""
"07/17/2014","23:27","214CR0016998","VANDALISM/CRIMINAL MISCHIEF","VANDALISM/CRIMINAL MISCHIEF","655 W GRANITE","",""
"07/17/2014","23:32","214CR0016999","CITIZEN AID","CITIZEN AID","847 W BROADWAY","",""
"07/17/2014","23:38","214CR0017000","JUVENILE MISC","JUVENILE MISC","************","",""
"07/17/2014","23:39","214CR0017001","SUSPICIOUS ACTIVITY","SUSPICIOUS ACTIVITY","HAVANA/916 E FRONT","",""
"07/17/2014","23:56","214CR0017002","MEDICAL - EMERGENCY","MEDICAL - EMERGENCY","1317 A ST","",""
"07/17/2014","23:59","214CR0017003","HIT AND RUN","FAIL TO ID, SELF AND VEHICLE","2001 DEWEY MAGIC DIAMOND CASIN","",""
"07/18/2014","00:10","214CR0017004","T/S","CRIMINAL CONTEMPT","AMHERST AND THOMAS","ARREST(s) MADE",""
"07/18/2014","00:18","214CR0017005","DISTURBANCE","DISTURBANCE","406 SILVERBOW HOMES","",""
"07/18/2014","00:29","214CR0017006","BUSINESS CHECK","BUSINESS CHECK","1370 HARRISON AVE","",""
"07/18/2014","01:11","214CR0017007","T/S","T/S","4100 BLK WESTERN BLVD","",""
"07/18/2014","01:22","214CR0017008","PROWLER","PROWLER","822 W GALENA","",""
"07/18/2014","01:23","214CR0017009","SUSPICIOUS ACTIVITY","SUSPICIOUS ACTIVITY","55 BASIN CREEK RD","",""
"07/18/2014","01:46","214CR0017010","DISTURBANCE","DISTURBANCE","643 S MAIN","",""
"07/18/2014","02:06","214CR0017011","T/S","T/S","MONTANA AND MERCURY","",""
"07/18/2014","02:22","214CR0017012","SUSPICIOUS ACTIVITY","SUSPICIOUS ACTIVITY","9 N MAIN","",""
"07/18/2014","02:22","214CR0017013","ALL OTHER","ALL OTHER","","",""
"07/18/2014","02:43","214CR0017014","ASSIST OTHER AGENCY","ASSIST OTHER AGENCY","I15 MM 125 NB","",""
"07/18/2014","02:47","214CR0017015","WELFARE CHECK","WELFARE CHECK","1312 SILVERBOW HOMES","",""
"07/18/2014","03:39","214CR0017016","MISSING PERSON","MISSING PERSON","************","",""
"07/18/2014","03:40","214CR0017017","THEFT","THEFT","1000 GRIZZLY TRAIL TOWN PUMP","",""
"07/18/2014","03:42","214CR0017018","THEFT","THEFT, SHOPLIFT","2544 HARRISON LISACS TRI STOP","",""
"07/18/2014","03:53","214CR0017019","THEFT","MOTOR VEHICLE THEFT","2711 HARRISON AVE","",""
"07/18/2014","04:26","214CR0017020","JUVENILE MISC","JUVENILE MISC","************","",""
"07/18/2014","04:44","214CR0017021","SUSPICIOUS ACTIVITY","SUSPICIOUS ACTIVITY","3099 HARRISON / KFC","",""
"07/18/2014","05:24","214CR0017022","SUSPICIOUS ACTIVITY","SUSPICIOUS ACTIVITY","PAXSON AND ELIZABETH WARREN","",""
"07/18/2014","06:17","214CR0017023","VANDALISM/CRIMINAL MISCHIEF","CRIMINAL MISCHIEF","1839 ELM ST","",""
"07/18/2014","06:32","214CR0017024","ACCIDENT - INJURY","ACCIDENT - INJURY","PAXSON AND ROOSEVELT","",""
"07/18/2014","07:07","214CR0017026","UNWANTED PERSON","UNWANTED PERSON","************","",""
BS

BSB police log ending July 16, 2014

"07/15/2014","00:06","214CR0016713","JUVENILE MISC","JUVENILE MISC","************","",""
"07/15/2014","00:10","214CR0016714","JUVENILE MISC","JUVENILE MISC","************","",""
"07/15/2014","00:33","214CR0016715","T/S","T/S","PARK ST AND DAKOTA ST","",""
"07/15/2014","00:47","214CR0016716","JUVENILE MISC","JUVENILE MISC","************","",""
"07/15/2014","00:59","214CR0016717","PROWLER","PROWLER","823 PLACER ST","",""
"07/15/2014","01:24","214CR0016718","SUSPICIOUS ACTIVITY","SUSPICIOUS ACTIVITY","2000 DEWEY/DOTTYS CASINO","",""
"07/15/2014","01:27","214CR0016719","THEFT","THEFT","1000 GRIZZLY TR","",""
"07/15/2014","02:42","214CR0016720","ANIMAL COMPLAINT","ANIMAL COMPLAINT","3004 MEADOWLARK LANE","",""
"07/15/2014","04:35","214CR0016721","WELFARE CHECK","WELFARE CHECK","DEWEY BLVD AND HARRISON AVE","",""
"07/15/2014","06:09","214CR0016722","DISTURBANCE","POSSESS ALCOHOL OR INTOXICANT","2102 ELM ST","ARREST(s) MADE",""
"07/15/2014","06:27","214CR0016723","SUSPICIOUS ACTIVITY","SUSPICIOUS ACTIVITY","STAR LANE AND GALAXY","",""
"07/15/2014","07:34","214CR0016724","ANIMAL COMPLAINT","ANIMAL COMPLAINT","CRYSTAL & PARK","",""
"07/15/2014","07:42","214CR0016725","SUSPICIOUS ACTIVITY","SUSPICIOUS ACTIVITY","MCGRUFF PARK","",""
"07/15/2014","08:04","214CR0016726","HIT AND RUN","HIT AND RUN, UNATTENDED VEHICL","1634 SCHLEY","",""
"07/15/2014","08:21","214CR0016727","BURGLARY","THEFT FROM BUILDINGS","818 S ARIZONA","",""
"07/15/2014","08:39","214CR0016728","HIT AND RUN","HIT AND RUN, UNATTENDED VEHICL","1621 ELM ST","",""
"07/15/2014","09:03","214CR0016729","THEFT","THEFT FROM MOTOR VEHICLE","900 W SILVER ST","",""
"07/15/2014","09:13","214CR0016730","WANTED PERSON","WANTED PERSON","************","",""
"07/15/2014","09:31","214CR0016731","BURGLARY","BURGLARY, RESIDENCE","61 W CENTER ST","",""
"07/15/2014","09:49","214CR0016732","MEDICAL - EMERGENCY","MEDICAL - EMERGENCY","445 CENTENNIAL","",""
"07/15/2014","09:55","214CR0016733","LED BUSINESS","LED BUSINESS","BUTTE","",""
"07/15/2014","10:25","214CR0016734","THEFT","THEFT, ALL OTHERS","2505 KOSSUTH","",""
"07/15/2014","10:38","214CR0016735","CIVIL PAPER SERVICE","CIVIL PAPER SERVICE","1355 SUNSET","",""
"07/15/2014","10:40","214CR0016736","CIVIL PAPER SERVICE","CIVIL PAPER SERVICE","112 N EXCELSIOR","",""
"07/15/2014","10:56","214CR0016737","CIVIL PAPER SERVICE","CIVIL PAPER SERVICE","2101 GRAND AVE","",""
"07/15/2014","11:19","214CR0016738","SUSPICIOUS ACTIVITY","SUSPICIOUS ACTIVITY","500 W COPPER","",""
"07/15/2014","11:30","214CR0016739","T/S","T/S","MAIN ST AND PLATINUM ST","",""
"07/15/2014","11:40","214CR0016740","UNWANTED PERSON","DISORDERLY CONDUCT","1333 S UTAH","ARREST(s) MADE",""
"07/15/2014","12:09","214CR0016741","THEFT","THEFT OF VEHICLE PARTS/ACCESSO","501 W GRANITE ST","",""
"07/15/2014","12:39","214CR0016742","MEDICAL - EMERGENCY","MEDICAL - EMERGENCY","ARIZONA AND THIRD ST","",""
"07/15/2014","13:05","214CR0016743","CIVIL PAPER SERVICE","CIVIL PAPER SERVICE","1440 HOLMES AVE","",""
"07/15/2014","13:09","214CR0016744","ASSIST OTHER AGENCY","ASSIST OTHER AGENCY","2035 S UTAH AVE","",""
"07/15/2014","13:15","214CR0016745","WANTED PERSON","WANTED PERSON","************","",""
"07/15/2014","13:22","214CR0016746","MEDICAL - EMERGENCY","MEDICAL - EMERGENCY","920 ANTIMONY","",""
"07/15/2014","13:33","214CR0016747","HARASSMENT","HARASSMENT","BSBLED","",""
"07/15/2014","13:39","214CR0016748","FIRE - STRUCTURE","FIRE - STRUCTURE","3400 HILL APT 1401","",""
"07/15/2014","13:42","214CR0016749","ALARM - BURGLARY","ALARM - BURGLARY","************","",""
"07/15/2014","14:06","214CR0016750","JUVENILE MISC","JUVENILE MISC","************","",""
"07/15/2014","14:15","214CR0016751","TRAFFIC","TRAFFIC","GRANITE AND WYOMING","",""
"07/15/2014","14:25","214CR0016752","ANIMAL COMPLAINT","ANIMAL COMPLAINT","I 90 MM 215 W BND","",""
"07/15/2014","14:39","214CR0016753","T/S","T/S","HARRISON AND 4 MILE RD","",""
"07/15/2014","14:46","214CR0016754","T/S","T/S","PLATINUM ST AND IDAHO ST","",""
"07/15/2014","14:52","214CR0016755","WANTED PERSON","WANTED PERSON","************","",""
"07/15/2014","14:56","214CR0016756","THEFT","THEFT","225 N ALASKA","",""
"07/15/2014","15:05","214CR0016757","INFORMATION ONLY","INFORMATION ONLY","","",""
"07/15/2014","15:12","214CR0016758","CITIZEN AID","CITIZEN AID","225 N ALASKA","",""
"07/15/2014","15:13","214CR0016759","ACCIDENT","ACCIDENT","123 E PARK","",""
"07/15/2014","15:32","214CR0016760","ATL","ATL","I 90 MM 216 E BND","",""
"07/15/2014","15:39","214CR0016761","CITIZEN AID","CITIZEN AID","225 N ALASKA ST","",""
"07/15/2014","15:57","214CR0016762","T/S","PROBATION VIOLATION","HARRISON AND PRINCETON ST","ARREST(s) MADE",""
"07/15/2014","16:04","214CR0016763","ACCIDENT","ACCIDENT","ELIZABETH WARRAN // BLK TAIL","",""
"07/15/2014","16:18","214CR0016764","HIT AND RUN","HIT AND RUN, UNATTENDED VEHICL","2409 ELM","",""
"07/15/2014","16:21","214CR0016765","STOLEN VEHICLE","STOLEN VEHICLE","1706 ELM ST","",""
"07/15/2014","16:36","214CR0016766","WELFARE CHECK","WELFARE CHECK","3131 HARRISON ARBYS","",""
"07/15/2014","16:42","214CR0016767","VANDALISM/CRIMINAL MISCHIEF","CRIMINAL MISCHIEF","1000 BLK S EXCELSIOR AVE","",""
"07/15/2014","16:53","214CR0016768","THEFT","THEFT","225 N ALASKA ST","",""
"07/15/2014","17:31","214CR0016769","THEFT","THEFT","659 TRAVONIA","",""
"07/15/2014","17:34","214CR0016770","T/S","T/S","GRAND AND HOMES","",""
"07/15/2014","17:54","214CR0016771","FIRE- GAS ODOR","FIRE- GAS ODOR","238 PUMPHOUSE RD","",""
"07/15/2014","18:10","214CR0016772","MEDICAL - EMERGENCY","MEDICAL - EMERGENCY","929 W COPPER","",""
"07/15/2014","18:35","214CR0016773","MEDICAL - EMERGENCY","MEDICAL - EMERGENCY","929 W COPPER ST","",""
"07/15/2014","18:46","214CR0016774","MEDICAL - EMERGENCY","MEDICAL - EMERGENCY","1300 BLK W COPPER","",""
"07/15/2014","19:02","214CR0016775","ASSIST OTHER AGENCY","ASSIST OTHER AGENCY","1900 S MONTANA ST","",""
"07/15/2014","19:04","214CR0016776","HIT AND RUN","HIT AND RUN","3901 HARRISON AVE","",""
"07/15/2014","19:25","214CR0016777","MEDICAL - EMERGENCY","MEDICAL - EMERGENCY","3400 S HILLCREST DR","",""
"07/15/2014","19:29","214CR0016778","MEDICAL - EMERGENCY","MEDICAL - EMERGENCY","929 W COPPER ST","",""
"07/15/2014","19:37","214CR0016779","ATL","ATL","100 BLK E PARK ST","",""
"07/15/2014","20:16","214CR0016781","DRUGS","DRUGS","************","",""
"07/15/2014","20:55","214CR0016782","ATL","ATL","200 BLK E PLATINUM","",""
"07/15/2014","20:55","214CR0016783","DISTURBANCE","DISTURBANCE","112 ONEIL ST","",""
"07/15/2014","21:29","214CR0016784","ASSAULT","THEFT, ALL OTHERS","2800 HARRISON","",""
"07/15/2014","21:31","214CR0016785","DISTURBANCE","DISTURBANCE","1125 S MAIN #316","",""
"07/15/2014","21:38","214CR0016786","ATL","ATL","1000 BLK STEEL ST","",""
"07/15/2014","21:52","214CR0016787","WELFARE CHECK","WELFARE CHECK","PLATINUM AND MONTANA","",""
"07/15/2014","22:39","214CR0016788","SUSPICIOUS ACTIVITY","SUSPICIOUS ACTIVITY","722 W GRANITE ST","",""
"07/15/2014","22:46","214CR0016789","INTOXICATED PERSON","POSSESS ALCOHOL OR INTOXICANT","10 BLK W PARK","ARREST(s) MADE",""
"07/15/2014","22:55","214CR0016790","PROWLER","PROWLER","57 W ALUMINUM","",""
"07/15/2014","23:23","214CR0016791","DISTURBANCE","DISTURBANCE","AREA BELOW BIG M","",""
"07/15/2014","23:23","214CR0016792","T/S","T/S","COBBAN AND HARRISON","",""
"07/15/2014","23:35","214CR0016793","ALL OTHER","ALL OTHER","2022 MASSACHUSETTS","",""
"07/15/2014","23:49","214CR0016794","MEDICAL - EMERGENCY","MEDICAL - EMERGENCY","501 W GRANITE #402","",""
"07/16/2014","00:12","214CR0016795","MEDICAL - EMERGENCY","MEDICAL - EMERGENCY","1700 GRAND","",""
"07/16/2014","00:54","214CR0016796","T/S","TRAFFIC HAZARD","PORTER AND NETTIE","",""
"07/16/2014","01:10","214CR0016797","ALARM - FIRE","ALARM - FIRE","1 E BROADWAY","",""
"07/16/2014","01:17","214CR0016798","SUSPICIOUS ACTIVITY","SUSPICIOUS ACTIVITY","2600 BLK OTTAWA ST","",""
"07/16/2014","01:48","214CR0016799","DISTURBANCE-NOISE","DISTURBANCE-NOISE","910 EVANS","",""
"07/16/2014","04:15","214CR0016800","VANDALISM/CRIMINAL MISCHIEF","CRIMINAL MISCHIEF","SILVERBOW HOMES PARKING LOT","",""
"07/16/2014","04:24","214CR0016801","INFORMATION ONLY","INFORMATION ONLY","396 SWAMP CREEK RD","",""
"07/16/2014","04:54","214CR0016802","THEFT","THEFT","122005 NISSLER RD MOTEL 6","",""
"07/16/2014","05:12","214CR0016803","SUSPICIOUS ACTIVITY","SUSPICIOUS ACTIVITY","MT HIGHLAND DR AND CONTINENTAL","",""
"07/16/2014","05:20","214CR0016804","SUSPICIOUS ACTIVITY","SUSPICIOUS ACTIVITY","907 W COPPER","",""
"07/16/2014","06:36","214CR0016805","THEFT","THEFT","122005 NISSLER RD","",""
"07/16/2014","07:36","214CR0016806","UNWANTED PERSON","UNWANTED PERSON","************","",""
"07/16/2014","08:08","214CR0016808","CIVIL PAPER SERVICE","CIVIL PAPER SERVICE","3201 KEOKUK","",""
"07/16/2014","08:09","214CR0016809","T/S","T/S","HARRISON AVE AND ELM ST","",""

BSB police log ending July 9, 2014

"07/08/2014","00:03","214CR0015974","T/S","T/S","NEVADA AND FRONT","",""
"07/08/2014","00:14","214CR0015975","BUSINESS CHECK","BUSINESS CHECK","1370 HARRISON AVE","",""
"07/08/2014","00:38","214CR0015976","SUSPICIOUS ACTIVITY","SUSPICIOUS ACTIVITY","100 BLK E BROADWAY","",""
"07/08/2014","00:47","214CR0015977","OPEN BUILDING","OPEN BUILDING","1000 S ARIZONA/HEAD START","",""
"07/08/2014","01:13","214CR0015978","WELFARE CHECK","WELFARE CHECK","1125 S MAIN ST #210","",""
"07/08/2014","01:34","214CR0015979","SUSPICIOUS ACTIVITY","SUSPICIOUS ACTIVITY","FLORENCE AND OTTAWA","",""
"07/08/2014","01:43","214CR0015980","OPEN BUILDING","OPEN BUILDING","2939 HARRISON TACO BELL","",""
"07/08/2014","01:47","214CR0015981","SUSPICIOUS ACTIVITY","SUSPICIOUS ACTIVITY","1400 SCHLEY ST","",""
"07/08/2014","01:50","214CR0015982","SUSPICIOUS ACTIVITY","SUSPICIOUS ACTIVITY","EVANS AND OREGON","",""
"07/08/2014","02:26","214CR0015983","SUSPICIOUS ACTIVITY","SUSPICIOUS ACTIVITY","PHILLIPS AND COBBAN","",""
"07/08/2014","02:54","214CR0015984","DISTURBANCE-NOISE","DISTURBANCE-NOISE","1401 SILVERBOW HOMES","",""
"07/08/2014","03:51","214CR0015985","CITIZEN AID","CITIZEN AID","3112 S DAKOTA","",""
"07/08/2014","06:18","214CR0015986","WANTED PERSON","CRIMINAL ENDANGERMENT","FRONT ST AND UTAH AVE","",""
"07/08/2014","07:32","214CR0015987","INTOXICATED PERSON","INTOXICATED PERSON","1100 BLK STEELE ST","",""
"07/08/2014","07:44","214CR0015988","CITIZEN AID","CITIZEN AID","EXCELSIOR AVE AND PARK ST","",""
"07/08/2014","07:56","214CR0015989","INTOXICATED PERSON","INTOXICATED PERSON","CHESTER STEEL PARK","",""
"07/08/2014","08:07","214CR0015990","THEFT","THEFT","2210 PLACER ST","",""
"07/08/2014","08:10","214CR0015991","MEDICAL - EMERGENCY","MEDICAL - EMERGENCY","12 ONEILL ST #A","",""
"07/08/2014","08:28","214CR0015992","SUSPICIOUS ACTIVITY","SUSPICIOUS ACTIVITY","700 W GOLD ST","",""
"07/08/2014","08:33","214CR0015993","SUSPICIOUS ACTIVITY","SUSPICIOUS ACTIVITY","1409 CASEY","",""
"07/08/2014","08:50","214CR0015994","DISTURBANCE","DISTURBANCE","1204 E SECOND ST","",""
"07/08/2014","09:09","214CR0015995","T/S","T/S","GARDEN AVE AND SHIELDS ST","",""
"07/08/2014","09:23","214CR0015996","CIVIL PAPER SERVICE","CIVIL PAPER SERVICE","318 W PLATINUM","",""
"07/08/2014","09:54","214CR0015997","ACCIDENT","ACCIDENT","GEORGE AND THORNTON","",""
"07/08/2014","10:01","214CR0015998","SUSPICIOUS ACTIVITY","SUSPICIOUS ACTIVITY","1136 STEELE ST","",""
"07/08/2014","10:17","214CR0015999","SUSPICIOUS ACTIVITY","SUSPICIOUS ACTIVITY","1409 CASEY ST","",""
"07/08/2014","10:26","214CR0016000","SUSPICIOUS ACTIVITY","SUSPICIOUS ACTIVITY","204 NEVERSWEAT","",""
"07/08/2014","10:35","214CR0016001","SUSPICIOUS ACTIVITY","SUSPICIOUS ACTIVITY","207 W PARK ST","",""
"07/08/2014","10:40","214CR0016002","BURGLARY","BURGLARY, NON-RESIDENCE","2200 OTTAWA","",""
"07/08/2014","10:44","214CR0016003","DISTURBANCE","DISTURBANCE","400 S CLARK ST","",""
"07/08/2014","10:45","214CR0016004","T/S","T/S","MONTANA ST AND ALUMINUM ST","",""
"07/08/2014","10:55","214CR0016005","SUSPICIOUS ACTIVITY","POSSESS DRUG PARAPHERNALIA","1201 CENTENNIAL AVE","ARREST(s) MADE",""
"07/08/2014","11:02","214CR0016006","T/S","T/S","3000 BLK HARRISON","",""
"07/08/2014","11:05","214CR0016007","DISTURBANCE","DISTURBANCE","2506 LOCUST","",""
"07/08/2014","11:20","214CR0016008","T/S","T/S","3000 BLK HARRISON","",""
"07/08/2014","11:30","214CR0016009","ASSIST OTHER AGENCY","PROBATION VIOLATION","155 W GRANITE ST","ARREST(s) MADE",""
"07/08/2014","11:32","214CR0016010","THEFT","THEFT FROM MOTOR VEHICLE","750 S UTAH AVE","",""
"07/08/2014","11:37","214CR0016011","THEFT","THEFT","2800 HARRISON AVE","",""
"07/08/2014","12:02","214CR0016012","HARASSMENT","HARASSMENT","","",""
"07/08/2014","12:05","214CR0016013","T/S","T/S","MAIN ST AND SILVER ST","",""
"07/08/2014","12:19","214CR0016014","JUVENILE MISC","NEGLIGENT ARSON","2211 SILVER BOW BLVD","ARREST(s) MADE",""
"07/08/2014","12:26","214CR0016015","DISTURBANCE-NOISE","DISTURBANCE-NOISE","605 S IDAHO","",""
"07/08/2014","12:45","214CR0016016","TRAFFIC","TRAFFIC","DEWY BLVD AND HARRISON AVE","",""
"07/08/2014","12:57","214CR0016017","THEFT","THEFT FROM MOTOR VEHICLE","517 W GRANITE","",""
"07/08/2014","13:14","214CR0016018","LED BUSINESS","LED BUSINESS","","",""
"07/08/2014","13:19","214CR0016019","JUVENILE RUNAWAY","JUVENILE RUNAWAY","************","",""
"07/08/2014","13:47","214CR0016020","THEFT","THEFT","125 WALDRON DR","",""
"07/08/2014","14:24","214CR0016021","CRIMINAL TRESPASS","CRIMINAL MISCHIEF","414 VIRGINIA","ARREST(s) MADE",""
"07/08/2014","14:53","214CR0016022","SUSPICIOUS ACTIVITY","SUSPICIOUS ACTIVITY","13 W BROADWAY ST","",""
"07/08/2014","15:03","214CR0016023","DISTURBANCE","DISTURBANCE","50 FORD LN","",""
"07/08/2014","15:10","214CR0016024","MEDICAL - EMERGENCY","MEDICAL - EMERGENCY","3900 JUPITER LANE #103C","",""
"07/08/2014","15:15","214CR0016025","THEFT","THEFT","841 W MERCURY ST","",""
"07/08/2014","15:20","214CR0016026","CIVIL PAPER SERVICE","CIVIL PAPER SERVICE","910 EVANS #D5","",""
"07/08/2014","15:32","214CR0016027","TRAFFIC HAZARD","TRAFFIC HAZARD","500 BLK SILVER BOW HOMES","",""
"07/08/2014","15:35","214CR0016028","T/S","T/S","PARK AND DAKOTA","",""
"07/08/2014","15:36","214CR0016029","MEDICAL - EMERGENCY","MEDICAL - EMERGENCY","2013 REYNOLDS","",""
"07/08/2014","15:41","214CR0016030","T/S","T/S","10 BLK E MERCURY","",""
"07/08/2014","15:48","214CR0016031","T/S","T/S","GRANITE ST AND MONTANA ST","",""
"07/08/2014","15:52","214CR0016032","WANTED PERSON","WANTED PERSON","************","",""
"07/08/2014","15:55","214CR0016033","CITIZEN AID","CITIZEN AID","901 S WASHINGTON #1","",""
"07/08/2014","15:58","214CR0016034","T/S","T/S","PARK ST AND DAKOTA ST","",""
"07/08/2014","16:04","214CR0016035","THEFT","THEFT","225 N ALASKA","",""
"07/08/2014","16:07","214CR0016036","WANTED PERSON","WANTED PERSON","************","",""
"07/08/2014","16:11","214CR0016037","ACCIDENT-MHP","ACCIDENT-MHP","I 15 MM 127 S BND","",""
"07/08/2014","16:15","214CR0016038","FIRE- GAS ODOR","FIRE- GAS ODOR","155 W GRANITE ST","",""
"07/08/2014","16:39","214CR0016039","T/S","T/S","ALUMINUM AND PLR","",""
"07/08/2014","16:51","214CR0016040","T/S","T/S @ SECOND AND MERCURY","SECOND AND MERCURY","",""
"07/08/2014","16:52","214CR0016041","ACCIDENT - INJURY","ACCIDENT - INJURY","HOLMES AND HARRISON","",""
"07/08/2014","16:59","214CR0016042","ACCIDENT - INJURY","ACCIDENT - INJURY","DEWEY AND OREGON","",""
"07/08/2014","17:20","214CR0016043","WELFARE CHECK","WELFARE CHECK","99 E 3RD ST","",""
"07/08/2014","17:23","214CR0016044","CRIMINAL TRESPASS","CRIMINAL TRESPASS","311 NASSAU","",""
"07/08/2014","17:33","214CR0016046","ATL","ATL","24 E COPPER HAYES MORRIS HOUSE","",""
"07/08/2014","17:34","214CR0016045","CIVIL STANDBY","CIVIL STANDBY","1315 S MONTANA ST","",""
"07/08/2014","17:51","214CR0016047","PARKING COMPLAINT","PARKING COMPLAINT","318 W BROADWAY","",""
"07/08/2014","17:57","214CR0016048","CITIZEN AID","CITIZEN AID","I 15 MM 121 S BND","",""
"07/08/2014","18:02","214CR0016049","LED BUSINESS","LED BUSINESS","226 E BROADWAY","",""
"07/08/2014","18:12","214CR0016050","VEHICLE INSPECTION","VEHICLE INSPECTION","4635 UTAH #2","",""
"07/08/2014","18:21","214CR0016051","ALL OTHER","ALL OTHER","1214 FARREL","",""
"07/08/2014","18:28","214CR0016052","SUICIDE ATTEMPT/THREAT","SUICIDE ATTEMPT/THREAT","************","",""
"07/08/2014","18:40","214CR0016053","SUSPICIOUS ACTIVITY","SUSPICIOUS ACTIVITY","HARVARD ST AND HOWARD ST","",""
"07/08/2014","18:41","214CR0016054","THEFT","THEFT","840 S MONTANA ST","",""
"07/08/2014","19:05","214CR0016055","CIVIL STANDBY","CIVIL STANDBY","922 MARYLAND","",""
"07/08/2014","19:05","214CR0016056","DISTURBANCE-NOISE","DISTURBANCE-NOISE","50 W BROADWAY # 305","",""
"07/08/2014","19:23","214CR0016057","DISORDERLY CONDUCT","OBSTRUCTING A PEACE OFFICER","155 W QUARTZ","ARREST(s) MADE",""
"07/08/2014","19:40","214CR0016058","WANTED PERSON","WANTED PERSON","************","",""
"07/08/2014","19:51","214CR0016059","WANTED PERSON","WANTED PERSON","************","",""
"07/08/2014","20:39","214CR0016060","DISTURBANCE","ASSAULT ON PEACE OFFICER","1 W PARK ST","ARREST(s) MADE",""
"07/08/2014","20:48","214CR0016061","JUVENILE MISC","JUVENILE MISC","************","",""
"07/08/2014","20:52","214CR0016062","SUSPICIOUS ACTIVITY","SUSPICIOUS ACTIVITY","2300 BLK WALNUT","",""
"07/08/2014","20:56","214CR0016063","ATL","ATL","4400 BLK WESTERN BLVD","",""
"07/08/2014","20:57","214CR0016064","VANDALISM/CRIMINAL MISCHIEF","VANDALISM/CRIMINAL MISCHIEF","141 E DALY","",""
"07/08/2014","21:34","214CR0016065","SUSPICIOUS ACTIVITY","SUSPICIOUS ACTIVITY","1940 DEWEY BLVD","",""
"07/08/2014","21:59","214CR0016066","SUSPICIOUS ACTIVITY","SUSPICIOUS ACTIVITY","1050 S MONTANA","",""
"07/08/2014","22:03","214CR0016067","DISTURBANCE","DISTURBANCE","SILVER BOW HOMES","",""
"07/08/2014","22:05","214CR0016068","CRIMINAL TRESPASS","CRIMINAL TRESPASS","141 E DALY","",""
"07/08/2014","22:14","214CR0016069","BUSINESS CHECK","BUSINESS CHECK","13 W BROADWAY ST","",""
"07/08/2014","22:16","214CR0016070","ANIMAL COMPLAINT","ANIMAL COMPLAINT","125 E CENTER ST","",""
"07/08/2014","22:16","214CR0016071","MEDICAL - EMERGENCY","MEDICAL - EMERGENCY","929 W COPPER ST","",""
"07/08/2014","22:20","214CR0016072","BUSINESS CHECK","BUSINESS CHECK","60 E BROADWAY","",""
"07/08/2014","22:22","214CR0016073","UNKNOWN PROBLEM","PFMA - MINOR INJ/PHYSICAL CONT","PARK AND MAIN","ARREST(s) MADE",""
"07/08/2014","22:22","214CR0016074","ALL OTHER","ALL OTHER","2 E GALENA","",""
"07/08/2014","22:23","214CR0016075","ALL OTHER","ALL OTHER","20 S MONTANA","",""
"07/08/2014","22:25","214CR0016076","BUSINESS CHECK","BUSINESS CHECK","133 S MAIN ST","",""
"07/08/2014","22:26","214CR0016077","DISTURBANCE","DISTURBANCE","2407 OTTAWA","",""
"07/08/2014","22:27","214CR0016078","FIREWORKS COMPLAINT","FIREWORKS COMPLAINT","BLACKTAIL LANE AND BITTERSWEET","",""
"07/08/2014","22:28","214CR0016079","WELFARE CHECK","WELFARE CHECK","103 S EXCELSIOR","",""
"07/08/2014","22:30","214CR0016080","ATL","ATL","ARIZONA ST AND PARK ST","",""
"07/08/2014","22:40","214CR0016081","TRAFFIC HAZARD","TRAFFIC HAZARD","CONTINENTAL DR AND ELIZ WARREN","",""
"07/08/2014","22:51","214CR0016082","BUSINESS CHECK","BUSINESS CHECK","402 E BROADWAY","",""
"07/08/2014","23:21","214CR0016083","DISTURBANCE","DISTURBANCE","141 E DALY","",""
"07/08/2014","23:39","214CR0016085","SUSPICIOUS ACTIVITY","SUSPICIOUS ACTIVITY","3215 HANNIBAL HERITAGE BIBLE","",""
"07/08/2014","23:39","214CR0016084","T/S","T/S","HARRISON AND OTTAWA","",""
"07/08/2014","23:49","214CR0016086","DISTURBANCE","DISORDERLY CONDUCT","141 E DALY","ARREST(s) MADE",""
"07/09/2014","00:19","214CR0016087","CITIZEN AID","CITIZEN AID","617 S WYOMING","",""
"07/09/2014","00:22","214CR0016088","DISTURBANCE","DISTURBANCE","300 BLK GRANITE MT ROAD","",""
"07/09/2014","00:39","214CR0016089","DISTURBANCE","DISTURBANCE","3536 S ARIZONA","",""
"07/09/2014","00:49","214CR0016090","SUSPICIOUS ACTIVITY","SUSPICIOUS ACTIVITY","500 BLK S MAIN W ALLEY","",""
"07/09/2014","01:46","214CR0016091","THEFT","THEFT, ALL OTHERS","3320 1/2 BUSCH","",""
"07/09/2014","01:50","214CR0016092","DISTURBANCE-NOISE","DISTURBANCE-NOISE","1000 BLK S UTAH AVE","",""
"07/09/2014","01:52","214CR0016093","SUSPICIOUS ACTIVITY","SUSPICIOUS ACTIVITY","GRANITE AND MAIN","",""
"07/09/2014","02:08","214CR0016094","SUSPICIOUS ACTIVITY","SUSPICIOUS ACTIVITY","FRONT AND ARIZONA","",""
"07/09/2014","02:25","214CR0016095","BUSINESS CHECK","BUSINESS CHECK","2544 HARRISON LISACS TRI STOP","",""
"07/09/2014","02:28","214CR0016097","ACCIDENT-MHP","ACCIDENT-MHP","I15 MM 131 SB","",""
"07/09/2014","02:29","214CR0016096","BUSINESS CHECK","BUSINESS CHECK","2721 HARRISON AVE/SUDS AND FUN","",""
"07/09/2014","02:32","214CR0016098","BUSINESS CHECK","BUSINESS CHECK","LADY LILS CASINO","",""
"07/09/2014","02:40","214CR0016099","DISTURBANCE","DISTURBANCE","809 TRAVONIA","",""
"07/09/2014","03:15","214CR0016100","UNKNOWN PROBLEM","UNKNOWN PROBLEM","2703 YALE","",""
"07/09/2014","03:46","214CR0016101","FIREWORKS COMPLAINT","FIREWORKS COMPLAINT","2050 JOHNS AVE","",""
"07/09/2014","03:53","214CR0016103","TRAFFIC HAZARD","TRAFFIC HAZARD","I15 MM 126 NB","",""
"07/09/2014","03:54","214CR0016102","STOLEN VEHICLE","MOTOR VEHICLE THEFT","2100 CORNELL","",""
"07/09/2014","04:45","214CR0016104","SUSPICIOUS ACTIVITY","SUSPICIOUS ACTIVITY","2711 HARRISON TOWN PUMP","",""
"07/09/2014","05:50","214CR0016105","DISTURBANCE","DISTURBANCE","809 TRAVONIA","",""
"07/09/2014","07:17","214CR0016106","STOLEN VEHICLE","STOLEN VEHICLE","1310 E PARK PLACE","",""

Subcategories

Thursday the 24th. Affiliate Marketing.
Copyright 2012

©